Heber, UT

11:28 PM MDT on May 27, 2017 (GMT -0600)
Heber

Weather History for K36U - July, 2013

Change the Weather History Date:

Sunday, July 7, 2013

  Actual Average (KPVU) Record (KPVU)
Temperature  
Mean Temperature 70 °F -  
Max Temperature 87 °F 88 °F 100 °F (2002)
Min Temperature 53 °F 56 °F 50 °F (2014)
Cooling Degree Days 5    
Growing Degree Days 20 (Base 50)    
Moisture  
Dew Point 52 °F    
Average Humidity 66    
Maximum Humidity 94    
Minimum Humidity 24    
Precipitation  
Precipitation 0.00 in - - ()
Sea Level Pressure  
Sea Level Pressure 30.13 in    
Wind  
Wind Speed 4 mph (SSW)    
Max Wind Speed 21 mph    
Max Gust Speed 32 mph    
Visibility 10 miles    
Events Rain , Thunderstorm    
Averages and records for this station are not official NWS values.
T = Trace of Precipitation, MM = Missing Value Source: NWS Daily Summary

Daily Weather History Graph

Daily Weather History Graph

Search for Another Location

Airport or City:

Trip Planner

Search our weather history database for the weather conditions in past years. The results will help you decide how hot, cold, wet, or windy it might be!

Date:

Astronomy

Jul. 07, 2013 Rise Set
Actual Time 6:02 AM MDT 8:58 PM MDT
Civil Twilight 5:29 AM MDT 9:31 PM MDT
Nautical Twilight 4:48 AM MDT 10:12 PM MDT
Astronomical Twilight 4:00 AM MDT 11:00 PM MDT
Moon 5:42 AM MDT (7/7) 8:24 PM MDT (7/7)
Length of Visible Light 16h 01m
Length of Day
14h 55m
Waning Crescent, 0% of the Moon is Illuminated
Jul 7
Waning Crescent
Jul 8
New
Jul 15
First Quarter
Jul 22
Full
Jul 29
Last Quarter

Hourly Weather History & Observations

Time (MDT) Temp. Dew Point Humidity Pressure Visibility Wind Dir Wind Speed Gust Speed Precip Events Conditions
12:15 AM 60.8 °F 53.6 °F 77% 30.14 in 10.0 mi SW 11.5 mph - N/A Rain Rain
12:35 AM 59.0 °F 53.6 °F 82% 30.10 in 10.0 mi East 4.6 mph 9.2 mph N/A Rain Light Rain
12:55 AM 60.8 °F 53.6 °F 77% 30.12 in 10.0 mi Calm Calm - N/A Rain , Thunderstorm Light Thunderstorms and Rain
1:15 AM 59.0 °F 53.6 °F 82% 30.13 in 10.0 mi ESE 3.5 mph - N/A Rain , Thunderstorm Light Thunderstorms and Rain
1:35 AM 60.8 °F 51.8 °F 72% 30.15 in 10.0 mi SE 4.6 mph - N/A Thunderstorm Overcast
1:55 AM 59.0 °F 55.4 °F 88% 30.13 in 10.0 mi East 6.9 mph - N/A   Light Drizzle
2:15 AM 60.8 °F 53.6 °F 77% 30.13 in 10.0 mi SW 3.5 mph - N/A Rain Light Rain
2:35 AM 59.0 °F 55.4 °F 88% 30.14 in 10.0 mi West 6.9 mph - N/A Rain Light Rain
2:55 AM 59.0 °F 53.6 °F 82% 30.14 in 10.0 mi Calm Calm - N/A   Overcast
3:15 AM 59.0 °F 53.6 °F 82% 30.16 in 10.0 mi Calm Calm - N/A   Overcast
3:35 AM 59.0 °F 53.6 °F 82% 30.13 in 10.0 mi East 11.5 mph - N/A Rain Light Rain
3:55 AM 59.0 °F 53.6 °F 82% 30.13 in 10.0 mi NNE 10.4 mph - N/A   Mostly Cloudy
4:15 AM 57.2 °F 53.6 °F 88% 30.13 in 10.0 mi West 6.9 mph - N/A   Scattered Clouds
4:35 AM 55.4 °F 53.6 °F 94% 30.12 in 10.0 mi WSW 3.5 mph - N/A   Clear
4:55 AM 55.4 °F 51.8 °F 88% 30.11 in 10.0 mi Calm Calm - N/A   Clear
5:15 AM 55.4 °F 51.8 °F 88% 30.12 in 10.0 mi East 3.5 mph - N/A   Clear
5:35 AM 53.6 °F 51.8 °F 94% 30.11 in 10.0 mi East 4.6 mph - N/A   Clear
5:55 AM 53.6 °F 51.8 °F 94% 30.12 in 10.0 mi ESE 6.9 mph - N/A   Clear
6:15 AM 55.4 °F 50.0 °F 82% 30.12 in 10.0 mi SSE 4.6 mph - N/A   Clear
6:35 AM 53.6 °F 51.8 °F 94% 30.12 in 10.0 mi West 4.6 mph - N/A   Clear
6:55 AM 53.6 °F 51.8 °F 94% 30.13 in 10.0 mi Calm Calm - N/A   Clear
7:15 AM 55.4 °F 51.8 °F 88% 30.13 in 10.0 mi Calm Calm - N/A   Clear
7:35 AM 57.2 °F 51.8 °F 82% 30.13 in 10.0 mi Calm Calm - N/A   Clear
7:55 AM 59.0 °F 51.8 °F 77% 30.13 in 10.0 mi Calm Calm - N/A   Clear
8:15 AM 60.8 °F 51.8 °F 72% 30.13 in 10.0 mi Calm Calm - N/A   Clear
8:35 AM 60.8 °F 51.8 °F 72% 30.14 in 10.0 mi Calm Calm - N/A   Clear
8:55 AM 62.6 °F 53.6 °F 72% 30.14 in 10.0 mi Calm Calm - N/A   Clear
9:15 AM 62.6 °F 51.8 °F 68% 30.14 in 10.0 mi Calm Calm - N/A   Clear
9:35 AM 64.4 °F 53.6 °F 68% 30.14 in 10.0 mi Calm Calm - N/A   Clear
9:55 AM 64.4 °F 53.6 °F 68% 30.13 in 10.0 mi Calm Calm - N/A   Clear
10:15 AM 68.0 °F 51.8 °F 56% 30.13 in 10.0 mi Calm Calm - N/A   Clear
10:35 AM 69.8 °F 51.8 °F 53% 30.13 in 10.0 mi Calm Calm - N/A   Clear
10:55 AM 71.6 °F 50.0 °F 46% 30.13 in 10.0 mi Calm Calm - N/A   Clear
11:15 AM 73.4 °F 53.6 °F 50% 30.12 in 10.0 mi Calm Calm - N/A   Clear
11:35 AM 73.4 °F 51.8 °F 47% 30.12 in 10.0 mi Calm Calm - N/A   Clear
11:55 AM 77.0 °F 53.6 °F 44% 30.11 in 10.0 mi Calm Calm - N/A   Clear
12:15 PM 77.0 °F 53.6 °F 44% 30.11 in 10.0 mi Calm Calm - N/A   Scattered Clouds
12:35 PM 78.8 °F 53.6 °F 42% 30.10 in 10.0 mi North 3.5 mph - N/A   Scattered Clouds
12:55 PM 82.4 °F 51.8 °F 35% 30.10 in 10.0 mi North 4.6 mph - N/A   Clear
1:15 PM 87.8 °F 46.4 °F 24% 30.09 in 10.0 mi SW 10.4 mph 17.3 mph N/A   Clear
1:35 PM 87.8 °F 46.4 °F 24% 30.09 in 10.0 mi SW 9.2 mph - N/A   Clear
1:55 PM 84.2 °F 46.4 °F 27% 30.07 in 10.0 mi SW 13.8 mph 18.4 mph N/A   Clear
2:15 PM 84.2 °F 44.6 °F 25% 30.07 in 10.0 mi SW 12.7 mph - N/A Thunderstorm Clear
2:35 PM 80.6 °F 44.6 °F 28% 30.07 in 10.0 mi SW 13.8 mph 17.3 mph N/A Thunderstorm Clear
2:55 PM 78.8 °F 44.6 °F 30% 30.09 in 10.0 mi SW 18.4 mph 25.3 mph N/A Thunderstorm Thunderstorm
3:15 PM 71.6 °F 50.0 °F 46% 30.14 in 10.0 mi South 20.7 mph 32.2 mph N/A   Overcast
3:35 PM 69.8 °F 50.0 °F 49% 30.19 in 10.0 mi South 13.8 mph 20.7 mph N/A Rain , Thunderstorm Light Thunderstorms and Rain
3:55 PM 68.0 °F 51.8 °F 56% 30.19 in 10.0 mi WSW 4.6 mph - N/A   Light Drizzle
4:15 PM 69.8 °F 51.8 °F 53% 30.19 in 10.0 mi East 6.9 mph - N/A   Overcast
4:35 PM 69.8 °F 51.8 °F 53% 30.19 in 10.0 mi NW 5.8 mph - N/A   Mostly Cloudy
4:55 PM 69.8 °F 53.6 °F 56% 30.17 in 10.0 mi NW 8.1 mph - N/A   Overcast
5:15 PM 68.0 °F 53.6 °F 60% 30.16 in 10.0 mi WNW 8.1 mph - N/A   Mostly Cloudy
5:35 PM 69.8 °F 53.6 °F 56% 30.17 in 10.0 mi SW 5.8 mph - N/A Rain Rain
5:55 PM 69.8 °F 53.6 °F 56% 30.13 in 10.0 mi Calm Calm - N/A   Light Drizzle
6:15 PM 69.8 °F 51.8 °F 53% 30.12 in 10.0 mi Calm Calm - N/A   Scattered Clouds
6:35 PM 73.4 °F 50.0 °F 44% 30.12 in 10.0 mi Calm Calm - N/A   Clear
6:55 PM 69.8 °F 50.0 °F 49% 30.11 in 10.0 mi Calm Calm - N/A   Clear
7:15 PM 71.6 °F 50.0 °F 46% 30.11 in 10.0 mi Calm Calm - N/A   Clear
7:35 PM 71.6 °F 50.0 °F 46% 30.11 in 10.0 mi Calm Calm - N/A   Clear
7:55 PM 71.6 °F 50.0 °F 46% 30.11 in 10.0 mi Calm Calm - N/A   Clear
8:15 PM 69.8 °F 51.8 °F 53% 30.11 in 10.0 mi Calm Calm - N/A   Clear
8:35 PM 68.0 °F 53.6 °F 60% 30.11 in 10.0 mi Calm Calm - N/A   Clear
8:55 PM 66.2 °F 55.4 °F 68% 30.11 in 10.0 mi Calm Calm - N/A   Clear
9:15 PM 62.6 °F 55.4 °F 77% 30.12 in 10.0 mi Calm Calm - N/A   Clear
9:35 PM 60.8 °F 55.4 °F 82% 30.12 in 10.0 mi Calm Calm - N/A   Clear
9:55 PM 59.0 °F 53.6 °F 82% 30.13 in 10.0 mi Calm Calm - N/A   Clear
10:15 PM 59.0 °F 53.6 °F 82% 30.13 in 10.0 mi Calm Calm - N/A   Clear
10:35 PM 59.0 °F 53.6 °F 82% 30.15 in 10.0 mi Calm Calm - N/A   Clear
10:55 PM 59.0 °F 53.6 °F 82% 30.15 in 10.0 mi Calm Calm - N/A   Clear
11:15 PM 59.0 °F 53.6 °F 82% 30.15 in 10.0 mi Calm Calm - N/A   Clear
11:35 PM 55.4 °F 51.8 °F 88% 30.15 in 10.0 mi Calm Calm - N/A   Clear
11:55 PM 55.4 °F 51.8 °F 88% 30.16 in 10.0 mi Calm Calm - N/A   Clear